Regional Weather Roundup
Issued by NWS

Home | Current Version | Previous Version | Text Only | Print | Product List | Glossary Off
Versions: 1 2 3 4 5 6 7 8 9 10 11 12 13 14 15 16 17 18 19 20 21 22 23 24 25 26 27

000
ASUS45 KCYS 251010
RWRWY

WYOMING REGIONAL WEATHER ROUNDUP
NATIONAL WEATHER SERVICE CHEYENNE WY
400 AM MDT SUN SEP 25 2016

NOTE:  "FAIR" INDICATES FEW OR NO CLOUDS BELOW 12,000 FEET
WITH NO SIGNIFICANT WEATHER AND/OR OBSTRUCTIONS TO VISIBILITY.

WYZ001-251100-
YELLOWSTONE NATIONAL PARK

CITY           SKY/WX    TMP DP  RH WIND       PRES   REMARKS
LK YELLOWSTONE   N/A     26  26 100 CALM      30.49R
W YELLOWSTONE  NOT AVBL

$$
WYZ002>013-054>058-071-098>099-251100-
NORTHERN WYOMING

CITY           SKY/WX    TMP DP  RH WIND       PRES   REMARKS
JACKSON        FAIR      32  32 100 NE6       30.46R WCI  26
CODY           FAIR      37  36  93 S3        30.39R
GREYBULL       FOG       42  42 100 CALM      30.35R VSB 1/4
WORLAND        FAIR      41  40  96 SW7       30.35R
SHERIDAN       CLOUDY    49  40  71 W7        30.33R
BUFFALO        FAIR      47  35  63 N16G26    30.34R
GILLETTE       MOCLDY    45  44  97 NW15      30.31R
HULETT         FAIR      46  41  81 W8G16     30.30R
NEWCASTLE      FAIR      45  41  87 NW14      30.28R

$$
WYZ014>020-022>026-101>103-251100-
CENTRAL WYOMING

CITY           SKY/WX    TMP DP  RH WIND       PRES   REMARKS
BIG PINEY      FAIR      31  29  92 SW3       30.46S
PINEDALE       FAIR      30  30 100 NW3       30.47R
DUBOIS         FAIR      36  30  80 NW15      30.42R WCI  26
LANDER         FAIR      40  33  76 VRB5      30.37S
RIVERTON       FAIR      38  37  97 NE5       30.39R WCI  34
CASPER         FAIR      38  35  89 W8        30.38S WCI  32
DOUGLAS        CLOUDY    46  38  73 W15       30.37R

$$
WYZ021-027>030-104>119-251100-
SOUTHERN WYOMING

CITY           SKY/WX    TMP DP  RH WIND       PRES   REMARKS
EVANSTON       FAIR      37  29  72 S6        30.47S WCI  32
FORT BRIDGER   FAIR      40  32  74 SW5       30.49S
ROCK SPRINGS   FAIR      36  33  89 SW9       30.45S WCI  29
DIXON          CLOUDY    38  37  96 CALM      30.48R
RAWLINS        FAIR      36  33  89 SW7       30.43R WCI  30
SARATOGA       FAIR      32  32 100 E3        30.44S
LARAMIE        FAIR      35  29  78 CALM      30.42R
CHEYENNE       FAIR      43  32  65 NW12      30.38R
TORRINGTON     FAIR      44  38  79 NW10      30.31R
PINE BLUFFS    FAIR      43  36  75 NW13      30.35R

$$




USA.gov is the U.S. government's official web portal to all federal, state and local government web resources and services.